Weather in Taranto

Italy     40˚27′41″N   17˚15′21″E
temp.,
°C
wind,
m/s
gust,
m/s
humid.,
%
clouds,
%
prec.,
mm/h
press.,
hPa
HPBL,
m
29 november, sun
sun2901:00+14˚se6118191 0.8 1012780
04:00+13˚se4995100 16.0 1010557
07:00+14˚se151793100 59.0 1009913
10:00+15˚sse81187100 7.0 1009825
13:00+15˚sse2484100 8.0 1008409
16:00+15˚sse2478100 0.7 1008449
19:00+14˚e4885100 2.3 1009372
22:00+13˚ne238798 0.6 1011101
30 november, mon
mon3001:00+14˚nne6108799 1.2 1012396
04:00+12˚ne81287100 3.9 1013523
07:00+13˚n598199 4.4 1015709
10:00+14˚nnw7106644 0.0 1017852
13:00+14˚nnw8116322 0.0 1017926
16:00+12˚nnw611630 0.0 1018733
19:00+11˚nnw611710 0.0 1018622
22:00+10˚nnw510690 0.0 1019512
1 december, tue
tue101:00+9˚nnw47720 0.0 1019303
04:00+8˚nnw37730 0.0 1018261
07:00+8˚nnw23770 0.0 1018159
10:00+11˚nw11680 0.0 1018307
13:00+12˚sw21610 0.0 1017445
16:00+11˚ssw226533 0.0 1015181
19:00+11˚sse246917 0.0 1016273
22:00+11˚se24761 0.0 1015277
2 december, wed
wed201:00+12˚sse368528 0.1 1014368
04:00+12˚se488752 0.5 1013376
07:00+12˚sse488738 0.9 1012328
10:00+15˚sse687927 0.3 1013818
13:00+16˚sse577460 0.9 1011905
16:00+15˚sse588099 0.1 1010646
19:00+14˚se61184100 0.1 1010734
22:00+15˚sse81383100 0.6 1009957
3 december, thu
thu301:00+15˚sse91480100 2.1 1008951
04:00+14˚se91487100 0.9 1006914
07:00+16˚sse111679100 3.2 1005969
10:00+16˚sse121775100 2.0 10051167
13:00+16˚sse121774100 4.3 10031342
16:00+14˚s111585100 3.9 10031091
19:00+12˚ssw4682100 17.3 1002591
22:00+12˚ese127698 0.1 1004251